BLF1050 UACC-UTDD

Flight info

Callsign BLF1050
Flight time 2h 5m
Altitude 32000
Route KOKON1B KOKON M75 AMIGU P178 TIMKA M168 GENDI DODUR PF A103 SX PUGU1N
Aircraft B738/M-SDE2E3FGHIRWXY/LB1

Departure

Time 2026-04-26 12:42
Airport Nursultan Nazarbayev International Airport (UACC)

Arrival

Time 2026-04-26 14:47
Airport Dushanbe International Airport (UTDD)
Time Latitude Longitude Altitude Speed Heading
2026-04-26 12:06 51.02630 71.46156 1163 ft 0 kts 321°
2026-04-26 12:08 51.02630 71.46157 1163 ft 0 kts 321°
2026-04-26 12:29 51.02626 71.46162 1161 ft 4 kts 321°
2026-04-26 12:29 51.02586 71.46205 1163 ft 2 kts 338°
2026-04-26 12:30 51.02574 71.46210 1162 ft 2 kts
2026-04-26 12:30 51.02562 71.46207 1163 ft 2 kts 29°
2026-04-26 12:30 51.02553 71.46197 1163 ft 2 kts 41°
2026-04-26 12:31 51.02543 71.46182 1163 ft 0 kts 45°
2026-04-26 12:33 51.02560 71.46208 1163 ft 8 kts 45°
2026-04-26 12:33 51.02614 71.46297 1162 ft 8 kts 55°
2026-04-26 12:33 51.02632 71.46418 1163 ft 9 kts 80°
2026-04-26 12:33 51.02666 71.46507 1163 ft 0 kts 45°
2026-04-26 12:34 51.02675 71.46521 1163 ft 6 kts 45°
2026-04-26 12:34 51.02702 71.46613 1161 ft 13 kts 103°
2026-04-26 12:34 51.02657 71.46769 1162 ft 19 kts 69°
2026-04-26 12:34 51.02758 71.46937 1161 ft 22 kts 44°
2026-04-26 12:35 51.02868 71.47109 1161 ft 21 kts 45°
2026-04-26 12:35 51.02958 71.47250 1163 ft 20 kts 45°
2026-04-26 12:35 51.03059 71.47408 1163 ft 21 kts 45°
2026-04-26 12:35 51.03150 71.47550 1163 ft 20 kts 44°
2026-04-26 12:36 51.03239 71.47686 1163 ft 17 kts 44°
2026-04-26 12:36 51.03321 71.47815 1161 ft 19 kts 45°
2026-04-26 12:36 51.03397 71.47936 1160 ft 10 kts 44°
2026-04-26 12:36 51.03417 71.47979 1163 ft 0 kts 61°
2026-04-26 12:37 51.03426 71.48013 1163 ft 6 kts 71°
2026-04-26 12:37 51.03430 71.48117 1163 ft 12 kts 90°
2026-04-26 12:37 51.03430 71.48161 1163 ft 0 kts 90°
2026-04-26 12:38 51.03430 71.48164 1163 ft 1 kts 90°
2026-04-26 12:39 51.03430 71.48208 1163 ft 7 kts 90°
2026-04-26 12:39 51.03408 71.48301 1164 ft 12 kts 133°
2026-04-26 12:39 51.03330 71.48296 1164 ft 13 kts 221°
2026-04-26 12:39 51.03318 71.48278 1164 ft 0 kts 223°
2026-04-26 12:40 51.03317 71.48277 1164 ft 0 kts 223°
2026-04-26 12:40 51.03307 71.48262 1164 ft 9 kts 223°
2026-04-26 12:41 51.03107 71.47947 1164 ft 74 kts 224°
2026-04-26 12:41 51.02585 71.47133 1162 ft 134 kts 225°
2026-04-26 12:41 51.01818 71.45887 1214 ft 177 kts 229°
2026-04-26 12:41 51.00894 71.44438 1728 ft 190 kts 230°
2026-04-26 12:42 50.99981 71.42948 2578 ft 186 kts 231°
2026-04-26 12:42 50.99069 71.41527 3349 ft 191 kts 230°
2026-04-26 12:42 50.98053 71.39972 3551 ft 214 kts 230°
2026-04-26 12:42 50.96943 71.38269 3935 ft 226 kts 230°
2026-04-26 12:43 50.95800 71.36510 4436 ft 231 kts 230°
2026-04-26 12:43 50.95031 71.35329 4821 ft 235 kts 230°
2026-04-26 12:43 50.93833 71.33487 5430 ft 242 kts 231°
2026-04-26 12:43 50.92621 71.31618 6197 ft 244 kts 231°
2026-04-26 12:44 50.91396 71.29723 6960 ft 245 kts 231°
2026-04-26 12:44 50.90168 71.27823 7720 ft 247 kts 230°
2026-04-26 12:44 50.88949 71.25936 8433 ft 250 kts 230°
2026-04-26 12:44 50.87700 71.24003 9192 ft 250 kts 230°
2026-04-26 12:45 50.86446 71.22061 9857 ft 255 kts 229°
2026-04-26 12:45 50.85150 71.20055 10297 ft 269 kts 228°
2026-04-26 12:45 50.83757 71.17896 10467 ft 291 kts 227°
2026-04-26 12:45 50.82255 71.15576 10649 ft 312 kts 227°
2026-04-26 12:46 50.80644 71.13091 10861 ft 330 kts 227°
2026-04-26 12:46 50.78968 71.10521 11327 ft 339 kts 226°
2026-04-26 12:46 50.77275 71.07928 12095 ft 338 kts 226°
2026-04-26 12:46 50.75588 71.05343 12892 ft 337 kts 226°
2026-04-26 12:47 50.73897 71.02752 13583 ft 339 kts 226°
2026-04-26 12:47 50.72195 71.00150 14189 ft 342 kts 226°
2026-04-26 12:47 50.70494 70.97556 14781 ft 345 kts 225°
2026-04-26 12:47 50.68603 70.95199 15418 ft 349 kts 217°
2026-04-26 12:48 50.66551 70.93119 16033 ft 351 kts 215°
2026-04-26 12:48 50.64472 70.91081 16601 ft 353 kts 215°
2026-04-26 12:48 50.62375 70.89031 17169 ft 355 kts 215°
2026-04-26 12:48 50.60297 70.86988 17737 ft 356 kts 215°
2026-04-26 12:49 50.58196 70.84906 18273 ft 358 kts 216°
2026-04-26 12:49 50.56077 70.82797 18789 ft 361 kts 216°
2026-04-26 12:49 50.53948 70.80670 19268 ft 364 kts 216°
2026-04-26 12:49 50.51803 70.78525 19708 ft 367 kts 216°
2026-04-26 12:50 50.49642 70.76364 20182 ft 369 kts 215°
2026-04-26 12:50 50.47472 70.74195 20649 ft 371 kts 215°
2026-04-26 12:50 50.45287 70.72013 21058 ft 373 kts 215°
2026-04-26 12:50 50.43085 70.69816 21491 ft 375 kts 215°
2026-04-26 12:51 50.40874 70.67610 21892 ft 378 kts 215°
2026-04-26 12:51 50.38667 70.65412 22270 ft 381 kts 215°
2026-04-26 12:51 50.36422 70.63180 22682 ft 382 kts 215°
2026-04-26 12:51 50.34168 70.60942 23052 ft 384 kts 215°
2026-04-26 12:52 50.31897 70.58689 23416 ft 386 kts 215°
2026-04-26 12:52 50.29620 70.56431 23761 ft 389 kts 215°
2026-04-26 12:52 50.27326 70.54160 24112 ft 391 kts 215°
2026-04-26 12:52 50.25023 70.51882 24443 ft 393 kts 215°
2026-04-26 12:53 50.22704 70.49591 24753 ft 395 kts 215°
2026-04-26 12:53 50.20381 70.47298 25126 ft 396 kts 215°
2026-04-26 12:53 50.18044 70.44997 25429 ft 398 kts 215°
2026-04-26 12:53 50.15712 70.42635 25706 ft 400 kts 217°
2026-04-26 12:54 50.13465 70.40064 26018 ft 401 kts 219°
2026-04-26 12:54 50.11278 70.37438 26318 ft 402 kts 219°
2026-04-26 12:54 50.09059 70.34773 26581 ft 404 kts 219°
2026-04-26 12:54 50.06820 70.32129 26895 ft 404 kts 219°
2026-04-26 12:55 50.04571 70.29502 27273 ft 403 kts 218°
2026-04-26 12:55 50.02333 70.26904 27712 ft 400 kts 218°
2026-04-26 12:55 50.00106 70.24323 28129 ft 398 kts 218°
2026-04-26 12:55 49.97889 70.21757 28490 ft 397 kts 218°
2026-04-26 12:56 49.95671 70.19192 28814 ft 396 kts 218°
2026-04-26 12:56 49.93488 70.16669 29169 ft 395 kts 218°
2026-04-26 12:56 49.91262 70.14099 29549 ft 393 kts 218°
2026-04-26 12:56 49.89094 70.11598 29877 ft 392 kts 218°
2026-04-26 12:57 49.86906 70.09074 30228 ft 391 kts 218°
2026-04-26 12:57 49.84721 70.06558 30516 ft 391 kts 218°
2026-04-26 12:57 49.82536 70.04043 30754 ft 392 kts 218°
2026-04-26 12:58 49.78137 69.98992 31236 ft 393 kts 218°
2026-04-26 12:58 49.75930 69.96463 31460 ft 394 kts 218°
2026-04-26 12:58 49.73727 69.93941 31741 ft 393 kts 218°
2026-04-26 12:58 49.71525 69.91424 32000 ft 393 kts 218°
2026-04-26 12:59 49.67092 69.86362 32039 ft 397 kts 218°
2026-04-26 12:59 49.62674 69.81334 32039 ft 392 kts 218°
2026-04-26 13:00 49.58320 69.76388 32035 ft 389 kts 218°
2026-04-26 13:00 49.53972 69.71456 32045 ft 387 kts 218°
2026-04-26 13:01 49.49625 69.66538 32045 ft 387 kts 218°
2026-04-26 13:01 49.45267 69.61619 32049 ft 389 kts 218°
2026-04-26 13:02 49.40890 69.56687 32061 ft 391 kts 218°
2026-04-26 13:02 49.36506 69.51759 32066 ft 393 kts 218°
2026-04-26 13:03 49.32072 69.46791 32066 ft 395 kts 218°
2026-04-26 13:03 49.27228 69.42713 32070 ft 402 kts 206°
2026-04-26 13:04 49.21783 69.40503 32084 ft 409 kts 195°
2026-04-26 13:04 49.16177 69.39138 32079 ft 410 kts 194°
2026-04-26 13:05 49.10533 69.37779 32074 ft 409 kts 195°
2026-04-26 13:05 49.04917 69.36400 32078 ft 407 kts 195°
2026-04-26 13:06 48.99359 69.35027 32080 ft 406 kts 195°
2026-04-26 13:06 48.93787 69.33648 32084 ft 404 kts 195°
2026-04-26 13:07 48.88232 69.32274 32092 ft 403 kts 195°
2026-04-26 13:07 48.82725 69.30917 32091 ft 402 kts 195°
2026-04-26 13:08 48.77201 69.29557 32094 ft 402 kts 195°
2026-04-26 13:08 48.71678 69.28200 32100 ft 401 kts 195°
2026-04-26 13:09 48.66160 69.26848 32112 ft 402 kts 195°
2026-04-26 13:09 48.60628 69.25497 32111 ft 402 kts 195°
2026-04-26 13:10 48.55100 69.24149 32115 ft 403 kts 195°
2026-04-26 13:10 48.49560 69.22799 32110 ft 403 kts 195°
2026-04-26 13:11 48.44059 69.21463 32125 ft 403 kts 195°
2026-04-26 13:11 48.38516 69.20119 32125 ft 403 kts 195°
2026-04-26 13:12 48.32967 69.18777 32141 ft 404 kts 195°
2026-04-26 13:12 48.27414 69.17438 32138 ft 404 kts 195°
2026-04-26 13:13 48.21863 69.16101 32138 ft 404 kts 195°
2026-04-26 13:13 48.16336 69.14774 32137 ft 404 kts 195°
2026-04-26 13:14 48.10776 69.13442 32145 ft 405 kts 195°
2026-04-26 13:14 48.05212 69.12112 32147 ft 405 kts 195°
2026-04-26 13:15 47.99638 69.10782 32149 ft 405 kts 195°
2026-04-26 13:15 47.95010 69.09681 32147 ft 405 kts 195°
2026-04-26 13:16 47.88524 69.08140 32149 ft 405 kts 195°
2026-04-26 13:16 47.82950 69.06819 32146 ft 404 kts 195°
2026-04-26 13:17 47.74652 69.04856 32145 ft 403 kts 195°
2026-04-26 13:18 47.66333 69.02897 32147 ft 403 kts 195°
2026-04-26 13:19 47.58043 69.00950 32148 ft 403 kts 195°
2026-04-26 13:19 47.52495 68.99650 32151 ft 403 kts 195°
2026-04-26 13:20 47.46937 68.98352 32146 ft 403 kts 195°
2026-04-26 13:20 47.41397 68.97059 32146 ft 403 kts 195°
2026-04-26 13:21 47.35852 68.95768 32151 ft 403 kts 195°
2026-04-26 13:21 47.30344 68.94486 32148 ft 403 kts 195°
2026-04-26 13:22 47.24797 68.93201 32146 ft 403 kts 195°
2026-04-26 13:22 47.19260 68.91921 32147 ft 403 kts 195°
2026-04-26 13:23 47.13716 68.90643 32150 ft 402 kts 195°
2026-04-26 13:23 47.08179 68.89368 32148 ft 402 kts 195°
2026-04-26 13:24 47.02669 68.88102 32148 ft 403 kts 195°
2026-04-26 13:24 46.97119 68.86830 32151 ft 403 kts 195°
2026-04-26 13:25 46.91564 68.85557 32150 ft 404 kts 195°
2026-04-26 13:25 46.86004 68.84286 32146 ft 405 kts 195°
2026-04-26 13:26 46.80439 68.83019 32145 ft 405 kts 195°
2026-04-26 13:26 46.75811 68.81967 32148 ft 404 kts 195°
2026-04-26 13:27 46.69343 68.80500 32147 ft 404 kts 195°
2026-04-26 13:27 46.63784 68.79240 32147 ft 403 kts 195°
2026-04-26 13:28 46.59172 68.78198 32147 ft 403 kts 195°
2026-04-26 13:28 46.53628 68.76951 32145 ft 402 kts 195°
2026-04-26 13:29 46.48097 68.75702 32151 ft 402 kts 195°
2026-04-26 13:29 46.42560 68.74458 32146 ft 402 kts 195°
2026-04-26 13:30 46.37034 68.73219 32148 ft 401 kts 195°
2026-04-26 13:30 46.31550 68.71993 32146 ft 401 kts 195°
2026-04-26 13:31 46.26023 68.70757 32151 ft 401 kts 195°
2026-04-26 13:31 46.20489 68.69522 32148 ft 403 kts 195°
2026-04-26 13:32 46.14935 68.68289 32139 ft 404 kts 195°
2026-04-26 13:32 46.09396 68.67059 32140 ft 405 kts 195°
2026-04-26 13:33 46.03811 68.65820 32139 ft 406 kts 195°
2026-04-26 13:33 45.98218 68.64584 32134 ft 406 kts 195°
2026-04-26 13:34 45.92634 68.63353 32132 ft 406 kts 194°
2026-04-26 13:34 45.87082 68.62132 32136 ft 405 kts 194°
2026-04-26 13:35 45.81507 68.60907 32140 ft 404 kts 194°
2026-04-26 13:35 45.75941 68.59685 32138 ft 404 kts 194°
2026-04-26 13:36 45.70408 68.58475 32136 ft 404 kts 194°
2026-04-26 13:36 45.64849 68.57263 32137 ft 404 kts 194°
2026-04-26 13:37 45.59285 68.56053 32138 ft 404 kts 194°
2026-04-26 13:37 45.53713 68.54842 32141 ft 404 kts 194°
2026-04-26 13:38 45.48145 68.53635 32147 ft 404 kts 194°
2026-04-26 13:38 45.42583 68.52432 32158 ft 404 kts 194°
2026-04-26 13:39 45.37043 68.51236 32156 ft 405 kts 194°
2026-04-26 13:39 45.31466 68.50036 32165 ft 406 kts 194°
2026-04-26 13:40 45.25861 68.48830 32164 ft 407 kts 194°
2026-04-26 13:40 45.20250 68.47623 32166 ft 407 kts 194°
2026-04-26 13:41 45.14666 68.46427 32166 ft 408 kts 194°
2026-04-26 13:41 45.09036 68.45223 32164 ft 409 kts 194°
2026-04-26 13:42 45.03404 68.44022 32167 ft 409 kts 194°
2026-04-26 13:42 44.97762 68.42821 32168 ft 410 kts 194°
2026-04-26 13:43 44.92103 68.41616 32165 ft 411 kts 194°
2026-04-26 13:43 44.86446 68.40417 32166 ft 412 kts 193°
2026-04-26 13:44 44.80807 68.39224 32166 ft 412 kts 193°
2026-04-26 13:44 44.75127 68.38024 32162 ft 413 kts 193°
2026-04-26 13:45 44.69429 68.36823 32153 ft 414 kts 193°
2026-04-26 13:45 44.63730 68.35625 32147 ft 414 kts 193°
2026-04-26 13:46 44.58029 68.34429 32147 ft 414 kts 193°
2026-04-26 13:46 44.52330 68.33234 32148 ft 414 kts 193°
2026-04-26 13:47 44.46625 68.32042 32148 ft 414 kts 193°
2026-04-26 13:47 44.40945 68.30855 32147 ft 415 kts 193°
2026-04-26 13:48 44.35228 68.29663 32151 ft 416 kts 193°
2026-04-26 13:48 44.29489 68.28470 32147 ft 416 kts 193°
2026-04-26 13:49 44.23787 68.27286 32142 ft 416 kts 193°
2026-04-26 13:49 44.18069 68.26101 32135 ft 415 kts 193°
2026-04-26 13:50 44.12284 68.25469 32135 ft 422 kts 181°
2026-04-26 13:50 44.06421 68.26289 32136 ft 423 kts 179°
2026-04-26 13:51 44.00599 68.27144 32138 ft 424 kts 180°
2026-04-26 13:51 43.94729 68.27964 32138 ft 423 kts 180°
2026-04-26 13:52 43.88859 68.28761 32139 ft 424 kts 180°
2026-04-26 13:52 43.82962 68.29559 32149 ft 426 kts 180°
2026-04-26 13:53 43.77053 68.30356 32147 ft 433 kts 180°
2026-04-26 13:53 43.70983 68.31174 32140 ft 440 kts 179°
2026-04-26 13:54 43.64881 68.31999 32123 ft 440 kts 179°
2026-04-26 13:54 43.58797 68.32818 32130 ft 437 kts 179°
2026-04-26 13:55 43.50758 68.33897 32126 ft 434 kts 179°
2026-04-26 13:56 43.40715 68.35236 32137 ft 440 kts 179°
2026-04-26 13:56 43.34596 68.36053 32128 ft 441 kts 179°
2026-04-26 13:57 43.28476 68.36946 32132 ft 443 kts 177°
2026-04-26 13:57 43.22412 68.38309 32121 ft 443 kts 175°
2026-04-26 13:58 43.16355 68.39789 32136 ft 441 kts 175°
2026-04-26 13:58 43.10295 68.41236 32128 ft 442 kts 175°
2026-04-26 13:59 43.04263 68.42643 32129 ft 442 kts 175°
2026-04-26 13:59 42.98184 68.44047 32127 ft 443 kts 175°
2026-04-26 14:00 42.86011 68.46849 32126 ft 443 kts 175°
2026-04-26 14:01 42.79937 68.48243 32125 ft 443 kts 175°
2026-04-26 14:01 42.73894 68.49628 32125 ft 442 kts 175°
2026-04-26 14:02 42.67815 68.51019 32138 ft 442 kts 175°
2026-04-26 14:02 42.61739 68.52405 32134 ft 442 kts 175°
2026-04-26 14:03 42.55662 68.53789 32128 ft 443 kts 175°
2026-04-26 14:03 42.49619 68.55163 32132 ft 443 kts 175°
2026-04-26 14:04 42.43532 68.56545 32129 ft 443 kts 175°
2026-04-26 14:04 42.37438 68.57925 32132 ft 444 kts 175°
2026-04-26 14:05 42.31337 68.59304 32128 ft 444 kts 175°
2026-04-26 14:05 42.25272 68.60673 32127 ft 444 kts 175°
2026-04-26 14:06 42.19171 68.62047 32127 ft 444 kts 175°
2026-04-26 14:06 42.13080 68.63415 32131 ft 444 kts 175°
2026-04-26 14:07 42.07018 68.64775 32128 ft 444 kts 175°
2026-04-26 14:07 42.00928 68.66137 32129 ft 443 kts 175°
2026-04-26 14:08 41.94837 68.67498 32122 ft 443 kts 175°
2026-04-26 14:08 41.88749 68.68856 32126 ft 442 kts 175°
2026-04-26 14:09 41.82679 68.70208 32126 ft 442 kts 175°
2026-04-26 14:09 41.76609 68.71556 32140 ft 442 kts 175°
2026-04-26 14:10 41.70530 68.72902 32146 ft 443 kts 175°
2026-04-26 14:10 41.64467 68.74244 32137 ft 445 kts 175°
2026-04-26 14:11 41.55281 68.76271 32145 ft 446 kts 175°
2026-04-26 14:11 41.49141 68.77624 32136 ft 447 kts 175°
2026-04-26 14:12 41.43004 68.78975 32141 ft 447 kts 175°
2026-04-26 14:12 41.36881 68.80239 32137 ft 446 kts 178°
2026-04-26 14:13 41.27628 68.81282 32138 ft 444 kts 180°
2026-04-26 14:14 41.22497 68.81801 32136 ft 444 kts 180°
2026-04-26 14:14 41.15322 68.82571 32131 ft 445 kts 180°
2026-04-26 14:15 41.09146 68.83255 32134 ft 445 kts 180°
2026-04-26 14:15 41.04008 68.83830 32127 ft 445 kts 180°
2026-04-26 14:16 40.97832 68.84517 32123 ft 445 kts 180°
2026-04-26 14:16 40.91660 68.85203 32126 ft 445 kts 180°
2026-04-26 14:17 40.85494 68.85884 32126 ft 444 kts 180°
2026-04-26 14:17 40.79361 68.86560 32133 ft 445 kts 180°
2026-04-26 14:18 40.73189 68.87239 32130 ft 445 kts 180°
2026-04-26 14:18 40.67015 68.87918 32128 ft 445 kts 180°
2026-04-26 14:19 40.60852 68.88594 32132 ft 444 kts 180°
2026-04-26 14:19 40.54683 68.89269 32127 ft 444 kts 180°
2026-04-26 14:20 40.48548 68.89941 32127 ft 445 kts 180°
2026-04-26 14:20 40.42374 68.90617 32131 ft 445 kts 180°
2026-04-26 14:21 40.36189 68.91289 32128 ft 445 kts 180°
2026-04-26 14:21 40.30008 68.91961 32125 ft 445 kts 180°
2026-04-26 14:22 40.23830 68.92631 32125 ft 445 kts 180°
2026-04-26 14:22 40.17693 68.93297 32119 ft 445 kts 180°
2026-04-26 14:23 40.11513 68.93966 32118 ft 445 kts 180°
2026-04-26 14:23 40.05320 68.94557 32117 ft 443 kts 185°
2026-04-26 14:24 39.99245 68.94104 32120 ft 439 kts 189°
2026-04-26 14:24 39.93147 68.93503 32118 ft 440 kts 189°
2026-04-26 14:25 39.87025 68.92949 32103 ft 440 kts 189°
2026-04-26 14:25 39.80901 68.92429 32100 ft 437 kts 189°
2026-04-26 14:25 39.77915 68.92185 32090 ft 422 kts 189°
2026-04-26 14:26 39.75026 68.91950 32082 ft 411 kts 189°
2026-04-26 14:26 39.72173 68.91711 31768 ft 408 kts 189°
2026-04-26 14:26 39.69364 68.91476 31417 ft 401 kts 189°
2026-04-26 14:26 39.66626 68.91244 31064 ft 397 kts 189°
2026-04-26 14:27 39.63878 68.91010 30626 ft 395 kts 189°
2026-04-26 14:27 39.61148 68.90779 30225 ft 392 kts 188°
2026-04-26 14:27 39.58431 68.90551 29807 ft 389 kts 188°
2026-04-26 14:27 39.55741 68.90327 29387 ft 386 kts 188°
2026-04-26 14:28 39.53056 68.90094 28881 ft 386 kts 188°
2026-04-26 14:28 39.50379 68.89854 28466 ft 384 kts 188°
2026-04-26 14:28 39.47720 68.89615 28034 ft 383 kts 188°
2026-04-26 14:28 39.45068 68.89378 27625 ft 381 kts 188°
2026-04-26 14:29 39.42424 68.89141 27200 ft 380 kts 188°
2026-04-26 14:29 39.39787 68.88906 26779 ft 379 kts 188°
2026-04-26 14:29 39.37192 68.88676 26359 ft 377 kts 187°
2026-04-26 14:29 39.34580 68.88445 25962 ft 375 kts 187°
2026-04-26 14:30 39.31982 68.88220 25533 ft 374 kts 187°
2026-04-26 14:30 39.29381 68.88014 25106 ft 373 kts 186°
2026-04-26 14:30 39.26788 68.87817 24699 ft 372 kts 186°
2026-04-26 14:30 39.24207 68.87623 24283 ft 370 kts 186°
2026-04-26 14:31 39.21641 68.87429 23867 ft 368 kts 186°
2026-04-26 14:31 39.19094 68.87236 23489 ft 365 kts 186°
2026-04-26 14:31 39.16564 68.87043 23080 ft 363 kts 186°
2026-04-26 14:31 39.14046 68.86850 22694 ft 362 kts 185°
2026-04-26 14:32 39.11531 68.86656 22297 ft 360 kts 185°
2026-04-26 14:32 39.09061 68.86466 21913 ft 359 kts 185°
2026-04-26 14:32 39.06566 68.86275 21520 ft 358 kts 185°
2026-04-26 14:32 39.04082 68.86084 21117 ft 357 kts 185°
2026-04-26 14:33 39.01605 68.85894 20716 ft 355 kts 185°
2026-04-26 14:33 38.99149 68.85706 20350 ft 352 kts 185°
2026-04-26 14:33 38.96710 68.85520 19956 ft 350 kts 185°
2026-04-26 14:33 38.94276 68.85333 19587 ft 349 kts 184°
2026-04-26 14:34 38.91857 68.85147 19194 ft 347 kts 184°
2026-04-26 14:34 38.89450 68.84964 18812 ft 346 kts 184°
2026-04-26 14:34 38.87081 68.84783 18436 ft 344 kts 184°
2026-04-26 14:34 38.84698 68.84601 18058 ft 342 kts 184°
2026-04-26 14:35 38.82321 68.84363 17634 ft 341 kts 186°
2026-04-26 14:35 38.79962 68.84059 17248 ft 340 kts 186°
2026-04-26 14:35 38.77604 68.83743 16835 ft 340 kts 186°
2026-04-26 14:35 38.75257 68.83432 16431 ft 338 kts 186°
2026-04-26 14:36 38.72911 68.83127 16027 ft 338 kts 186°
2026-04-26 14:36 38.70573 68.82829 15612 ft 336 kts 186°
2026-04-26 14:36 38.68273 68.82538 15231 ft 335 kts 186°
2026-04-26 14:36 38.65950 68.82246 14823 ft 335 kts 186°
2026-04-26 14:37 38.63635 68.81903 14417 ft 333 kts 191°
2026-04-26 14:37 38.61401 68.81135 14020 ft 332 kts 198°
2026-04-26 14:37 38.59221 68.80177 13623 ft 331 kts 199°
2026-04-26 14:37 38.57059 68.79206 13295 ft 325 kts 199°
2026-04-26 14:38 38.54922 68.78284 12840 ft 322 kts 198°
2026-04-26 14:38 38.52806 68.77401 12462 ft 318 kts 198°
2026-04-26 14:38 38.50712 68.76540 12085 ft 315 kts 198°
2026-04-26 14:38 38.49336 68.75970 11840 ft 313 kts 200°
2026-04-26 14:39 38.46990 68.73928 11326 ft 310 kts 231°
2026-04-26 14:39 38.45955 68.71547 10961 ft 306 kts 251°
2026-04-26 14:39 38.45628 68.68896 10603 ft 302 kts 268°
2026-04-26 14:39 38.45632 68.66233 10250 ft 298 kts 270°
2026-04-26 14:40 38.45666 68.63604 9990 ft 291 kts 270°
2026-04-26 14:40 38.45688 68.61061 9600 ft 289 kts 270°
2026-04-26 14:40 38.45697 68.58518 9221 ft 287 kts 270°
2026-04-26 14:40 38.45702 68.56008 8863 ft 284 kts 270°
2026-04-26 14:41 38.45724 68.53562 8770 ft 269 kts 276°
2026-04-26 14:41 38.46298 68.51393 8677 ft 252 kts 304°
2026-04-26 14:41 38.47480 68.49902 8517 ft 230 kts 327°
2026-04-26 14:41 38.48911 68.49077 8047 ft 224 kts 346°
2026-04-26 14:42 38.50457 68.48860 7485 ft 224 kts 358°
2026-04-26 14:42 38.51983 68.48965 7129 ft 215 kts 16°
2026-04-26 14:42 38.53277 68.49884 6932 ft 216 kts 44°
2026-04-26 14:42 38.54113 68.51472 6927 ft 222 kts 71°
2026-04-26 14:43 38.54396 68.53440 6697 ft 231 kts 85°
2026-04-26 14:43 38.54469 68.55470 6398 ft 226 kts 89°
2026-04-26 14:43 38.54468 68.57465 6084 ft 222 kts 90°
2026-04-26 14:43 38.54453 68.59421 5804 ft 217 kts 90°
2026-04-26 14:44 38.54444 68.61316 5517 ft 209 kts 90°
2026-04-26 14:44 38.54435 68.63125 5245 ft 198 kts 90°
2026-04-26 14:44 38.54429 68.64838 4996 ft 187 kts 91°
2026-04-26 14:44 38.54422 68.66453 4751 ft 180 kts 91°
2026-04-26 14:45 38.54416 68.68011 4524 ft 175 kts 91°
2026-04-26 14:45 38.54412 68.69040 4362 ft 173 kts 89°
2026-04-26 14:45 38.54404 68.71085 4058 ft 172 kts 89°
2026-04-26 14:45 38.54398 68.72611 3830 ft 172 kts 89°
2026-04-26 14:46 38.54395 68.74133 3599 ft 171 kts 89°
2026-04-26 14:46 38.54388 68.75650 3378 ft 171 kts 89°
2026-04-26 14:46 38.54385 68.77163 3149 ft 169 kts 89°
2026-04-26 14:46 38.54373 68.78658 2939 ft 174 kts 90°
2026-04-26 14:47 38.54377 68.80239 2687 ft 179 kts 89°
2026-04-26 14:47 38.54379 68.81751 2582 ft 159 kts 90°
2026-04-26 14:47 38.54370 68.82913 2579 ft 100 kts 90°
2026-04-26 14:47 38.54369 68.83520 2575 ft 38 kts 90°
2026-04-26 14:48 38.54364 68.83804 2582 ft 31 kts 89°
2026-04-26 14:48 38.54361 68.84064 2581 ft 24 kts 93°
2026-04-26 14:48 38.54371 68.84187 2581 ft 9 kts 15°
2026-04-26 14:48 38.54380 68.84129 2581 ft 8 kts 244°
2026-04-26 14:49 38.54366 68.84059 2581 ft 8 kts 270°
2026-04-26 14:49 38.54368 68.83988 2581 ft 8 kts 270°
2026-04-26 14:49 38.54368 68.83896 2575 ft 14 kts 270°
2026-04-26 14:49 38.54369 68.83747 2578 ft 20 kts 268°
2026-04-26 14:50 38.54365 68.83551 2581 ft 22 kts 269°
2026-04-26 14:50 38.54365 68.83366 2578 ft 17 kts 270°
2026-04-26 14:50 38.54449 68.83289 2574 ft 16 kts 359°
2026-04-26 14:50 38.54554 68.83288 2577 ft 17 kts 360°
2026-04-26 14:51 38.54655 68.83288 2577 ft 13 kts 353°
2026-04-26 14:51 38.54687 68.83183 2578 ft 16 kts 271°
2026-04-26 14:51 38.54687 68.83018 2579 ft 20 kts 270°
2026-04-26 14:51 38.54687 68.82845 2581 ft 19 kts 270°
2026-04-26 14:52 38.54689 68.82739 2578 ft 3 kts 276°
2026-04-26 14:52 38.54689 68.82685 2577 ft 9 kts 270°
2026-04-26 14:52 38.54688 68.82573 2578 ft 16 kts 270°
2026-04-26 14:52 38.54698 68.82430 2578 ft 17 kts 274°
2026-04-26 14:53 38.54699 68.82279 2575 ft 17 kts 270°
2026-04-26 14:53 38.54699 68.82113 2575 ft 17 kts 271°
2026-04-26 14:53 38.54699 68.81954 2581 ft 18 kts 269°
2026-04-26 14:53 38.54699 68.81840 2581 ft 16 kts 270°
2026-04-26 14:54 38.54699 68.81700 2577 ft 15 kts 270°
2026-04-26 14:54 38.54700 68.81584 2581 ft 12 kts 270°
2026-04-26 14:54 38.54742 68.81516 2581 ft 11 kts 351°
2026-04-26 14:54 38.54800 68.81514 2574 ft 4 kts 360°
2026-04-26 14:55 38.54802 68.81514 2581 ft 0 kts 360°